User: anonymous   Login
Location: Unspecified
(0.0000°N, 0.0000°E)
Time: 10:25:29
(UTC+00:00)
Language:

S-NET C - Orbit

View from above orbital plane
View from above orbital plane
View from above satellite
View from above satellite

Ground track
Ground track

The orbit data is extracted from the following two-line orbital elements,

1 43189U 18014K   19107.78138598 -.00000106 +00000-0 -42427-5 0  9999
2 43189 097.7134 017.1116 0010068 205.9674 154.1043 14.96616141064426
Epoch (UTC): 17 April 2019 18:45:11
Eccentricity: 0.0010068
inclination: 97.7134°
perigee height: 570 km
apogee height: 584 km
right ascension of ascending node: 17.1116°
argument of perigee: 205.9674°
revolutions per day: 14.96616141
mean anomaly at epoch: 154.1043°
orbit number at epoch: 6442

The dashed part of the orbit path shows where the satellite is in the earth's shadow,  

DLR